Temperature
18 21 19 18 17 18 18 18 18 17 13 12 13 14 14 8 7 8 7 7 6 5 4 2 1 1 1 1 1 -0 -0 -1 -1 -1 -1 -2 -3 -3 -4 -5 -6 -7 -8 -9
20 19 16 16 15 16 17 18 18 16 12 12 13 13 14 11 8 8 8 7 6 5 4 1 1 1 1 1 0 -0 -1 -1 -1 -2 -2 -3 -4 -5 -6 -6 -7 -8 -9 -9
20 17 15 16 16 17 17 17 17 16 13 11 12 16 13 10 8 7 7 7 7 6 4 2 1 1 1 1 0 -0 -1 -1 -2 -2 -3 -3 -4 -6 -7 -7 -7 -8 -9 -10
17 15 15 16 16 16 17 15 14 14 15 16 13 17 17 12 10 8 7 7 6 5 4 2 1 1 1 1 0 -1 -1 -2 -2 -3 -3 -4 -5 -6 -7 -8 -8 -9 -9 -10
16 15 16 16 15 14 15 13 13 13 14 15 14 16 19 11 13 12 9 8 6 5 4 2 1 1 1 1 -0 -1 -1 -2 -2 -3 -4 -4 -6 -6 -7 -8 -9 -9 -9 -10
15 14 14 15 13 13 13 13 13 13 14 17 16 16 18 16 16 14 11 9 6 4 3 2 1 1 1 0 -0 -1 -2 -2 -3 -3 -4 -5 -6 -7 -7 -8 -9 -10 -10 -10
16 15 14 13 15 14 15 17 18 18 18 18 14 14 17 16 13 12 11 8 6 4 2 1 1 1 1 0 -1 -1 -2 -2 -3 -3 -4 -5 -6 -7 -8 -9 -10 -10 -10 -10
18 18 15 14 15 15 15 16 17 17 18 18 14 15 19 13 9 8 7 6 4 3 1 1 1 1 0 -0 -1 -1 -2 -2 -3 -4 -5 -6 -7 -7 -8 -9 -10 -10 -11 -11
18 17 13 12 12 14 15 15 14 16 16 15 17 17 18 10 10 8 7 5 4 2 1 1 1 1 0 -0 -1 -1 -2 -3 -3 -4 -5 -6 -7 -8 -8 -9 -10 -10 -11 -11
15 17 14 12 12 12 14 14 15 16 16 16 18 18 18 18 16 13 9 6 4 2 1 0 1 1 0 -0 -1 -1 -2 -3 -3 -4 -5 -6 -7 -7 -8 -9 -10 -10 -11 -11
13 16 15 14 14 16 13 13 14 15 15 16 16 18 18 18 16 14 11 8 5 2 1 1 1 1 0 -0 -1 -2 -2 -3 -4 -4 -5 -6 -7 -8 -8 -9 -10 -10 -11 -11
12 15 17 16 13 12 14 15 15 16 16 14 15 17 17 15 13 11 10 7 4 3 1 1 1 1 0 -1 -1 -2 -3 -3 -4 -4 -5 -6 -7 -8 -9 -9 -10 -10 -11 -11
11 14 18 17 14 12 13 13 13 14 14 14 14 18 15 12 11 9 8 7 4 2 1 1 1 0 -0 -1 -1 -2 -3 -3 -4 -5 -5 -6 -7 -8 -8 -9 -10 -10 -11 -11
10 14 17 19 18 16 14 12 11 13 14 15 14 17 19 17 15 12 9 6 4 2 1 1 1 0 -0 -1 -2 -2 -3 -3 -4 -5 -5 -6 -7 -8 -8 -9 -9 -10 -11 -11
10 13 14 14 13 11 13 13 11 12 14 15 16 16 17 17 16 13 9 6 3 1 0 1 1 1 -0 -1 -2 -2 -3 -3 -4 -5 -5 -6 -7 -7 -8 -9 -9 -10 -10 -11
9 12 11 13 11 10 10 11 11 11 12 13 13 14 16 15 11 9 7 5 3 2 1 1 1 1 -0 -1 -2 -2 -3 -3 -4 -5 -5 -6 -7 -7 -8 -8 -9 -9 -10 -11
9 11 13 15 12 11 14 14 11 10 11 12 13 15 16 12 10 9 8 6 5 4 3 2 2 1 0 -1 -1 -2 -3 -3 -4 -5 -5 -6 -7 -7 -8 -8 -9 -9 -10 -10
9 11 12 12 13 14 18 12 12 11 12 11 12 14 14 12 10 8 8 7 6 5 4 3 2 1 0 -1 -1 -2 -3 -3 -4 -5 -5 -6 -6 -7 -7 -8 -8 -9 -9 -10
8 11 11 11 14 15 16 11 10 11 13 13 11 12 12 8 6 9 12 10 8 7 5 4 2 1 0 -1 -1 -2 -3 -3 -4 -5 -5 -6 -6 -6 -7 -7 -8 -9 -9 -9
6 8 10 9 12 14 18 11 9 11 14 15 11 12 11 5 11 13 11 10 8 6 5 3 2 1 -0 -1 -1 -2 -3 -3 -4 -5 -5 -5 -6 -6 -7 -7 -8 -8 -9 -9
7 8 8 9 10 14 14 8 9 14 18 17 15 13 10 8 11 11 10 9 8 6 4 3 1 1 -0 -1 -1 -2 -3 -3 -4 -4 -5 -5 -5 -6 -6 -6 -7 -8 -8 -9
10 9 8 9 10 13 10 8 12 17 18 17 16 15 13 13 12 11 10 8 7 6 4 2 1 0 -0 -1 -1 -2 -3 -3 -4 -4 -5 -5 -5 -5 -6 -6 -6 -7 -8 -8
11 12 12 11 14 14 11 13 16 16 16 16 16 15 14 12 12 11 10 8 7 6 4 3 1 0 -0 -1 -1 -2 -3 -3 -4 -4 -4 -5 -5 -5 -5 -6 -6 -6 -7 -8
10 8 10 9 11 12 11 14 16 16 16 17 16 15 14 13 12 11 10 8 7 6 4 3 1 0 -0 -1 -1 -2 -3 -3 -3 -4 -4 -4 -5 -5 -5 -5 -6 -6 -7 -8
13 8 9 10 12 11 14 17 19 18 18 17 17 16 15 14 13 11 10 9 7 6 5 3 2 1 0 -1 -1 -2 -2 -3 -3 -4 -4 -4 -4 -5 -5 -5 -6 -6 -7 -8
10 9 10 15 16 14 17 18 18 17 17 17 16 16 15 14 13 12 10 9 8 6 5 4 2 1 0 -1 -1 -2 -2 -3 -3 -4 -4 -4 -4 -4 -5 -5 -5 -6 -6 -7
Wind_Speed
3 3 4 4 2 2 1 4 6 2 3 7 13 15 11 14 18 19 18 18 18 16 14 12 10 7 4 1 3 5 8 9 10 9 9 9 10 9 11 12 15 16 17 18
2 4 3 1 1 1 3 5 5 2 2 5 11 16 12 14 19 20 19 19 18 16 14 13 11 8 5 1 2 5 7 8 9 9 9 8 10 9 10 12 14 15 17 18
3 4 1 2 2 2 3 5 5 5 1 4 9 8 4 5 11 16 17 18 18 17 16 15 13 9 5 2 2 4 6 7 9 10 9 9 8 7 8 11 11 16 18 18
5 2 2 2 1 2 3 1 4 5 6 4 3 6 2 3 7 13 17 18 18 17 16 14 13 10 6 2 0 3 5 7 8 9 9 11 9 10 12 10 11 17 17 18
3 2 1 1 1 2 2 1 3 3 4 5 2 5 3 2 5 9 14 17 17 16 15 14 12 9 6 3 0 3 5 6 7 9 9 10 10 10 10 11 13 14 16 17
4 1 2 1 1 0 1 2 2 3 3 3 1 4 5 2 2 2 4 10 13 14 14 13 11 9 6 4 1 2 4 5 7 8 9 9 11 12 13 14 14 13 12 15
3 2 1 0 1 2 2 4 4 3 3 3 1 5 7 1 4 5 5 5 10 13 14 14 13 10 7 4 2 2 4 5 7 8 8 9 11 12 13 13 13 14 13 13
2 2 2 1 2 2 1 3 4 5 6 7 2 6 5 1 3 5 6 6 9 13 14 14 12 10 7 5 3 2 4 5 7 7 8 9 10 9 9 12 12 13 12 13
1 2 2 2 1 2 1 2 2 3 4 6 6 6 7 3 8 9 8 8 11 14 15 14 12 9 7 5 3 2 3 5 6 7 8 9 9 10 11 12 12 11 13 16
1 2 3 2 3 3 2 3 3 2 4 6 9 7 5 5 6 8 11 12 13 14 15 14 12 10 7 5 3 2 3 5 6 7 7 7 9 10 11 11 12 13 15 17
2 3 3 3 5 4 4 4 3 2 3 4 7 7 4 9 6 7 9 11 14 16 16 14 12 10 8 6 4 3 3 4 6 6 8 9 9 10 11 10 12 13 14 16
2 2 3 3 2 1 3 5 6 4 3 4 5 8 3 7 6 8 9 9 12 15 15 14 12 10 8 7 5 4 3 4 5 6 8 8 9 10 10 11 12 14 14 15
4 3 3 3 3 4 5 5 6 3 3 5 5 9 2 4 8 10 10 9 11 15 15 14 12 11 9 7 6 5 4 4 5 6 7 8 9 10 11 11 12 13 14 14
4 4 6 5 2 4 6 8 10 9 6 7 12 18 17 13 11 11 10 10 12 15 16 15 13 11 10 8 7 5 4 4 5 6 7 8 9 10 10 11 11 12 13 13
4 5 6 9 6 5 8 12 14 16 13 11 13 13 21 20 16 12 8 9 13 15 16 16 14 12 11 9 8 6 5 4 5 6 7 8 9 10 10 11 11 12 12 13
5 5 3 6 4 6 9 15 18 18 15 18 21 22 23 16 9 8 8 11 15 17 18 17 15 13 12 11 9 7 5 4 5 6 7 8 8 9 10 10 11 12 12 13
7 5 3 4 1 6 12 13 18 11 13 13 14 13 9 7 10 10 10 13 16 17 18 18 16 14 12 11 9 7 6 4 5 6 7 8 8 9 10 10 11 11 12 12
7 5 3 4 4 9 4 3 11 10 11 16 16 17 15 13 11 10 11 14 16 16 17 17 15 13 12 10 8 7 5 5 6 7 7 7 8 9 10 11 11 12 11 12
3 5 4 3 5 10 6 5 8 8 9 14 18 20 17 3 7 10 12 15 15 16 16 16 15 13 12 11 9 7 6 6 6 7 7 7 8 9 10 11 11 11 11 12
2 3 4 4 5 8 4 5 5 3 7 7 13 16 9 3 7 7 5 11 13 13 13 13 13 13 12 11 10 8 7 7 7 7 7 8 8 9 10 11 12 11 11 11
5 6 7 8 8 11 2 7 8 4 5 4 11 11 9 10 10 2 5 9 12 14 14 14 14 13 12 11 10 9 8 8 7 6 7 8 9 9 10 11 11 11 11 12
11 10 10 8 8 11 8 11 11 9 2 3 7 9 11 14 9 6 8 11 14 15 15 16 14 12 11 11 11 10 10 8 6 6 7 8 8 8 8 10 11 11 10 11
12 12 8 13 11 2 13 13 9 4 6 7 7 10 12 13 12 11 10 13 15 16 16 15 14 13 11 12 12 11 9 7 6 6 7 7 8 8 8 9 10 9 8 8
9 5 7 9 15 11 13 16 15 14 16 16 13 11 11 14 13 13 12 13 15 16 16 15 15 14 13 13 13 11 8 7 6 6 6 6 7 7 7 7 7 7 7 8
9 10 8 12 11 9 14 18 21 20 18 19 18 16 16 16 15 15 14 16 16 16 16 16 16 15 15 14 13 12 10 8 7 6 6 6 6 6 6 6 6 7 7 8
9 12 12 16 10 9 12 7 9 14 17 17 16 16 16 17 17 16 15 15 16 17 17 16 16 16 15 14 13 12 11 10 8 6 5 4 4 5 5 6 6 5 7 10
Wind_Direction
22 91 78 70 35 12 293 269 279 282 160 227 252 262 244 200 207 216 216 215 216 217 209 193 189 186 186 223 345 348 346 348 348 346 344 341 340 336 337 337 335 333 333 331
146 86 72 77 154 204 250 276 285 249 177 253 287 279 264 213 212 217 220 221 221 217 205 196 193 192 199 237 342 345 347 346 349 345 338 331 325 325 327 330 330 331 330 327
80 89 114 149 135 235 257 280 305 306 289 234 298 283 194 204 224 228 231 231 228 220 211 199 195 195 198 221 347 345 342 340 344 342 335 331 327 326 334 335 331 329 326 323
88 96 155 151 106 314 300 298 294 290 293 301 329 310 163 185 226 229 230 229 228 221 215 202 194 192 191 178 9 334 333 335 342 341 338 339 335 334 333 330 324 324 324 322
103 83 105 139 62 303 334 349 271 266 271 281 245 284 286 161 253 237 228 226 224 217 210 198 189 181 171 164 233 320 325 332 340 340 339 335 331 329 326 327 324 326 325 324
97 88 29 56 105 122 187 205 178 200 236 267 155 290 292 195 229 249 230 224 218 209 199 189 175 167 167 172 218 299 317 329 338 338 337 334 331 330 328 329 328 328 326 325
142 137 94 203 210 160 253 305 307 299 290 327 122 267 266 276 245 257 263 239 212 197 189 181 175 176 180 192 225 282 314 329 337 335 334 332 329 327 327 328 327 327 326 327
201 165 114 32 350 352 25 336 352 324 316 315 251 262 280 199 243 253 258 248 206 193 189 184 180 179 183 195 223 274 314 327 333 332 330 327 327 325 322 324 323 322 322 323
233 156 116 62 33 314 146 100 8 283 285 285 277 274 282 203 247 240 238 224 206 195 190 185 180 180 185 196 217 269 308 320 327 326 325 323 327 325 321 321 321 320 322 323
260 214 162 138 151 60 6 143 181 264 310 303 296 284 274 265 257 228 229 223 209 195 190 186 182 182 186 195 210 246 291 312 318 319 322 318 321 322 321 319 321 322 323 325
231 230 171 187 211 201 164 170 189 201 263 280 301 295 221 262 273 256 245 226 206 195 191 186 183 182 185 194 210 240 276 301 309 316 317 317 319 320 320 319 321 323 324 326
186 244 237 198 110 351 233 215 199 241 239 233 269 274 212 244 253 254 260 233 207 196 190 185 181 182 190 200 211 232 263 289 304 310 311 314 317 320 321 321 322 323 324 327
174 216 251 196 187 194 216 208 202 206 238 226 241 270 159 230 250 251 254 237 204 192 186 183 183 189 196 202 211 226 251 278 295 303 307 311 317 321 322 322 322 323 325 326
190 230 242 269 293 188 207 199 191 193 220 233 235 267 288 290 284 274 253 231 204 193 189 188 190 193 197 201 209 222 243 266 287 297 302 309 317 320 319 319 320 323 324 326
201 243 246 265 264 244 245 227 203 211 226 242 256 263 279 295 304 295 266 218 200 195 194 194 194 193 194 199 206 215 233 255 276 290 298 306 312 315 315 316 319 321 323 325
204 235 258 269 245 234 256 241 224 227 236 246 262 274 273 284 284 266 241 211 204 202 199 197 195 193 195 198 201 206 222 244 269 280 287 295 304 310 312 315 317 319 321 323
185 201 235 266 225 288 267 235 201 204 214 215 232 251 274 270 264 265 245 215 212 206 199 196 195 195 193 193 191 197 211 230 254 267 277 288 296 302 307 311 314 318 320 320
174 185 232 281 294 247 256 120 183 208 230 220 240 261 270 274 288 275 247 224 215 204 197 195 192 188 185 179 178 186 202 229 250 264 271 278 287 296 303 309 312 317 317 316
212 195 214 237 260 276 268 183 179 204 264 226 231 253 266 301 301 271 229 217 213 200 194 190 185 178 172 172 174 178 204 226 243 256 266 276 282 290 299 305 311 316 315 313
125 194 217 208 231 248 260 144 157 161 274 230 212 239 240 197 280 299 174 196 198 189 182 175 170 168 171 174 172 184 208 223 238 251 266 278 285 290 297 304 310 313 313 310
171 189 208 218 237 263 244 138 152 193 269 200 205 224 201 209 236 267 163 183 184 179 173 169 167 172 176 170 173 194 212 226 236 252 270 280 286 292 298 301 306 309 310 310
180 179 196 187 208 251 163 153 194 228 257 212 218 221 216 229 235 211 195 185 179 176 174 172 172 176 172 171 181 201 216 222 227 248 268 280 289 294 294 302 307 311 313 313
206 201 196 196 215 267 173 203 225 264 255 246 234 231 225 234 233 218 204 192 186 182 178 177 177 174 175 182 192 206 211 206 219 245 266 281 291 294 297 304 309 315 319 318
217 207 210 236 256 247 228 241 253 248 251 260 254 243 225 229 231 214 202 193 189 186 182 178 178 182 187 191 199 208 201 198 217 244 266 282 291 298 305 307 309 315 317 319
209 179 212 242 260 288 258 236 243 251 253 257 255 245 235 231 229 213 203 195 190 186 183 182 186 190 192 191 198 201 199 199 215 237 258 278 288 298 305 309 311 311 310 316
199 194 207 249 231 224 264 243 226 238 249 248 247 246 233 224 225 211 205 195 188 185 182 185 190 193 193 191 195 195 193 196 207 225 244 266 285 298 308 315 316 307 307 321
Height
1578 1576 1579 1583 1585 1584 1583 1583 1582 1584 1592 1594 1587 1584 1585 1592 1595 1596 1597 1599 1600 1601 1604 1603 1602 1602 1601 1600 1597 1594 1591 1587 1583 1579 1575 1570 1564 1559 1552 1546 1540 1534 1528 1522
1576 1581 1587 1588 1588 1587 1585 1583 1581 1586 1594 1593 1584 1579 1578 1584 1588 1590 1591 1593 1595 1597 1599 1598 1598 1599 1598 1597 1595 1591 1588 1584 1580 1576 1571 1566 1560 1554 1548 1543 1537 1531 1525 1519
1577 1587 1589 1588 1587 1586 1585 1583 1582 1585 1590 1593 1590 1568 1575 1582 1585 1587 1588 1589 1590 1592 1594 1594 1595 1595 1595 1594 1591 1588 1585 1581 1577 1573 1568 1563 1557 1552 1547 1540 1534 1528 1522 1516
1583 1588 1588 1587 1587 1586 1582 1587 1589 1589 1586 1577 1587 1568 1561 1575 1580 1581 1582 1582 1584 1587 1589 1590 1591 1592 1591 1590 1588 1585 1581 1578 1574 1570 1565 1559 1554 1548 1543 1536 1531 1525 1519 1514
1585 1588 1587 1586 1588 1589 1587 1590 1589 1589 1586 1581 1583 1575 1556 1574 1570 1571 1574 1576 1578 1581 1584 1586 1586 1587 1587 1586 1584 1582 1578 1575 1571 1567 1562 1557 1551 1546 1540 1534 1528 1522 1517 1511
1587 1590 1589 1589 1590 1591 1590 1590 1589 1588 1583 1574 1576 1575 1559 1561 1563 1565 1569 1572 1574 1576 1579 1581 1582 1583 1583 1583 1581 1578 1575 1572 1568 1564 1559 1554 1548 1543 1537 1531 1525 1519 1513 1508
1585 1588 1590 1590 1588 1588 1587 1581 1574 1571 1569 1567 1582 1577 1561 1559 1564 1566 1568 1569 1570 1572 1574 1575 1577 1579 1579 1579 1577 1575 1572 1569 1566 1561 1556 1551 1546 1540 1534 1528 1522 1516 1511 1505
1580 1582 1588 1589 1588 1586 1586 1584 1583 1584 1576 1569 1577 1572 1553 1561 1564 1565 1565 1566 1566 1568 1569 1571 1573 1575 1575 1575 1573 1572 1569 1566 1562 1558 1553 1548 1543 1537 1532 1526 1520 1514 1509 1503
1578 1582 1590 1591 1591 1589 1585 1585 1589 1585 1584 1584 1565 1561 1553 1561 1561 1562 1562 1562 1562 1563 1565 1567 1569 1571 1571 1571 1570 1568 1566 1563 1559 1555 1550 1545 1540 1534 1529 1523 1518 1512 1506 1500
1584 1582 1587 1591 1592 1593 1590 1588 1588 1586 1583 1578 1562 1558 1553 1546 1548 1554 1556 1557 1557 1559 1560 1563 1564 1566 1567 1567 1566 1564 1562 1560 1556 1552 1547 1542 1537 1532 1526 1521 1515 1510 1504 1498
1587 1582 1584 1588 1586 1582 1590 1590 1587 1586 1585 1581 1572 1554 1544 1544 1545 1548 1550 1551 1552 1553 1555 1557 1560 1562 1562 1562 1562 1561 1559 1556 1553 1549 1544 1539 1534 1529 1524 1518 1513 1507 1501 1495
1588 1583 1576 1580 1586 1588 1585 1583 1583 1582 1579 1584 1578 1558 1541 1544 1545 1546 1546 1546 1546 1548 1550 1553 1555 1557 1558 1558 1558 1557 1555 1552 1549 1545 1541 1536 1532 1526 1521 1516 1510 1504 1499 1493
1588 1583 1574 1574 1584 1588 1585 1583 1584 1583 1582 1580 1577 1550 1540 1543 1543 1542 1542 1541 1541 1543 1545 1548 1550 1552 1553 1554 1554 1553 1551 1549 1546 1542 1538 1534 1529 1524 1519 1513 1507 1502 1496 1490
1587 1582 1574 1567 1566 1568 1575 1580 1583 1581 1576 1570 1565 1543 1531 1533 1535 1536 1536 1536 1536 1537 1539 1542 1545 1547 1548 1549 1549 1549 1547 1545 1542 1539 1535 1531 1526 1521 1516 1511 1505 1499 1493 1488
1586 1579 1575 1572 1573 1576 1571 1571 1576 1573 1564 1560 1546 1542 1530 1528 1529 1530 1530 1530 1531 1531 1533 1536 1539 1542 1543 1544 1545 1544 1543 1541 1539 1536 1532 1528 1524 1519 1514 1508 1503 1497 1491 1485
1584 1580 1578 1571 1572 1575 1572 1564 1566 1567 1563 1557 1550 1541 1527 1526 1526 1525 1525 1524 1524 1524 1527 1530 1533 1536 1538 1539 1540 1540 1539 1538 1535 1533 1529 1525 1521 1516 1511 1506 1500 1494 1489 1483
1580 1578 1575 1564 1568 1568 1553 1540 1552 1554 1549 1546 1541 1528 1521 1523 1522 1521 1519 1517 1517 1518 1520 1524 1527 1531 1533 1534 1535 1535 1535 1534 1532 1529 1526 1522 1518 1513 1508 1503 1497 1492 1486 1481
1576 1575 1573 1570 1565 1565 1529 1536 1538 1540 1537 1535 1529 1522 1520 1519 1517 1514 1512 1511 1510 1512 1514 1518 1522 1525 1528 1529 1530 1531 1531 1530 1528 1526 1523 1519 1515 1511 1506 1501 1495 1490 1484 1479
1575 1573 1572 1574 1560 1544 1529 1535 1537 1537 1528 1521 1522 1517 1515 1514 1513 1507 1505 1504 1505 1507 1510 1514 1517 1520 1523 1524 1526 1526 1526 1526 1524 1522 1520 1516 1512 1508 1503 1498 1493 1487 1482 1476
1577 1575 1573 1575 1565 1551 1522 1530 1531 1534 1526 1512 1513 1511 1511 1513 1511 1502 1501 1500 1500 1503 1505 1509 1512 1515 1517 1520 1521 1522 1522 1521 1520 1519 1516 1513 1509 1505 1500 1496 1490 1485 1480 1474
1573 1573 1572 1568 1561 1537 1522 1528 1532 1530 1514 1507 1506 1505 1505 1505 1502 1498 1496 1496 1497 1498 1501 1504 1507 1510 1513 1515 1516 1517 1517 1517 1516 1515 1513 1510 1507 1503 1498 1493 1488 1483 1477 1472
1550 1557 1560 1557 1558 1536 1522 1525 1521 1508 1502 1502 1501 1500 1498 1496 1494 1492 1491 1491 1492 1493 1495 1498 1501 1504 1507 1509 1511 1512 1513 1513 1512 1511 1509 1507 1504 1500 1496 1491 1486 1481 1476 1470
1536 1532 1531 1532 1521 1510 1509 1505 1502 1501 1499 1497 1495 1493 1492 1489 1487 1485 1485 1485 1486 1487 1489 1492 1496 1499 1502 1504 1506 1507 1508 1508 1508 1507 1506 1504 1501 1498 1494 1489 1484 1479 1474 1468
1525 1525 1525 1523 1508 1504 1502 1500 1498 1496 1494 1490 1488 1486 1484 1481 1479 1478 1477 1478 1479 1481 1483 1486 1489 1492 1495 1498 1500 1502 1503 1504 1504 1503 1502 1501 1498 1495 1492 1488 1483 1477 1472 1466
1510 1518 1516 1510 1500 1499 1492 1491 1490 1488 1486 1483 1481 1478 1475 1473 1470 1470 1469 1469 1471 1473 1476 1479 1482 1486 1489 1493 1495 1497 1498 1499 1499 1499 1499 1498 1496 1493 1490 1486 1482 1476 1471 1466
1503 1504 1504 1492 1489 1491 1484 1484 1483 1480 1477 1474 1472 1468 1466 1464 1462 1461 1461 1462 1463 1465 1468 1471 1475 1479 1483 1486 1489 1491 1492 1494 1495 1495 1495 1494 1493 1491 1488 1485 1481 1476 1471 1466